DLH1304 EDDF-LTFM

Flight info

Callsign DLH1304
Flight time 1h 33m
Altitude 23000
Route CINDY3L CINDY Z74 HAREM DCT ASLEP DCT TAKUT L603 DINKU/N0488F310 L603 BESNI/N0478F390 L605 MIQ DCT ALUTU DCT BIBAG DCT ESEGA DCT VELOM DCT GOTAR DCT NALOX DCT BABIT DCT ESIRI DCT ETIDA T390 RILEX RILEX2A
Aircraft B77L/H-SDE1E2E3FGHIJ2J3J4J5M1RWXY/LB1D1

Departure

Time 2026-04-16 11:09
Airport Frankfurt Main Airport (EDDF)

Arrival

Time 2026-04-16 12:42
Airport İstanbul Airport (LTFM)
Time Latitude Longitude Altitude Speed Heading
2026-04-16 10:23 50.04648 8.57254 372 ft 0 kts 298°
2026-04-16 10:57 50.04648 8.57255 367 ft 0 kts 298°
2026-04-16 10:57 50.04646 8.57259 367 ft 2 kts 297°
2026-04-16 10:58 50.04639 8.57282 370 ft 2 kts 294°
2026-04-16 10:58 50.04633 8.57306 369 ft 2 kts 289°
2026-04-16 10:58 50.04628 8.57330 374 ft 2 kts 280°
2026-04-16 10:58 50.04627 8.57345 370 ft 2 kts 275°
2026-04-16 10:59 50.04625 8.57370 370 ft 2 kts 289°
2026-04-16 10:59 50.04619 8.57394 368 ft 2 kts 291°
2026-04-16 10:59 50.04613 8.57417 374 ft 2 kts 291°
2026-04-16 10:59 50.04607 8.57441 369 ft 2 kts 286°
2026-04-16 11:00 50.04604 8.57466 368 ft 2 kts 268°
2026-04-16 11:00 50.04606 8.57486 368 ft 0 kts 255°
2026-04-16 11:01 50.04598 8.57444 370 ft 9 kts 251°
2026-04-16 11:02 50.04576 8.57351 371 ft 10 kts 249°
2026-04-16 11:02 50.04552 8.57251 374 ft 10 kts 250°
2026-04-16 11:02 50.04527 8.57147 374 ft 10 kts 250°
2026-04-16 11:02 50.04503 8.57045 372 ft 10 kts 249°
2026-04-16 11:03 50.04478 8.56941 374 ft 10 kts 249°
2026-04-16 11:03 50.04429 8.56735 373 ft 29 kts 250°
2026-04-16 11:03 50.04288 8.56144 372 ft 29 kts 249°
2026-04-16 11:04 50.04221 8.55866 372 ft 20 kts 249°
2026-04-16 11:04 50.04179 8.55688 373 ft 17 kts 250°
2026-04-16 11:04 50.04137 8.55511 370 ft 17 kts 250°
2026-04-16 11:04 50.04084 8.55292 374 ft 27 kts 250°
2026-04-16 11:05 50.04012 8.54990 372 ft 30 kts 249°
2026-04-16 11:05 50.03945 8.54712 369 ft 18 kts 250°
2026-04-16 11:05 50.03906 8.54549 373 ft 16 kts 250°
2026-04-16 11:05 50.03868 8.54387 374 ft 16 kts 246°
2026-04-16 11:06 50.03806 8.54239 371 ft 16 kts 243°
2026-04-16 11:06 50.03764 8.54073 375 ft 17 kts 249°
2026-04-16 11:06 50.03709 8.53842 372 ft 28 kts 250°
2026-04-16 11:06 50.03639 8.53552 371 ft 29 kts 249°
2026-04-16 11:07 50.03579 8.53305 373 ft 19 kts 249°
2026-04-16 11:07 50.03536 8.53128 371 ft 16 kts 249°
2026-04-16 11:07 50.03496 8.52964 371 ft 16 kts 249°
2026-04-16 11:07 50.03459 8.52822 373 ft 13 kts 244°
2026-04-16 11:08 50.03439 8.52750 373 ft 5 kts 249°
2026-04-16 11:08 50.03431 8.52713 374 ft 6 kts 250°
2026-04-16 11:08 50.03417 8.52645 371 ft 5 kts 253°
2026-04-16 11:08 50.03398 8.52603 375 ft 5 kts 210°
2026-04-16 11:09 50.03345 8.52592 372 ft 19 kts 180°
2026-04-16 11:09 50.02987 8.52600 370 ft 93 kts 180°
2026-04-16 11:09 50.02079 8.52598 376 ft 164 kts 181°
2026-04-16 11:09 50.00922 8.52590 1107 ft 166 kts 179°
2026-04-16 11:10 49.99732 8.52604 1941 ft 173 kts 178°
2026-04-16 11:10 49.98498 8.52602 2779 ft 186 kts 179°
2026-04-16 11:10 49.97137 8.52695 3191 ft 208 kts 167°
2026-04-16 11:10 49.95808 8.53864 3430 ft 242 kts 127°
2026-04-16 11:11 49.95017 8.56207 4175 ft 248 kts 113°
2026-04-16 11:11 49.94319 8.58744 4249 ft 258 kts 115°
2026-04-16 11:11 49.93518 8.61208 4147 ft 260 kts 118°
2026-04-16 11:11 49.92657 8.63681 4540 ft 261 kts 118°
2026-04-16 11:12 49.91790 8.66140 5705 ft 260 kts 119°
2026-04-16 11:12 49.90898 8.68634 6694 ft 268 kts 120°
2026-04-16 11:12 49.89978 8.71198 7585 ft 275 kts 120°
2026-04-16 11:12 49.89037 8.73814 8521 ft 281 kts 120°
2026-04-16 11:13 49.88075 8.76482 9488 ft 286 kts 120°
2026-04-16 11:13 49.87095 8.79198 10383 ft 293 kts 120°
2026-04-16 11:13 49.86073 8.82022 10995 ft 311 kts 120°
2026-04-16 11:13 49.84957 8.85102 11240 ft 344 kts 120°
2026-04-16 11:14 49.83733 8.88477 11542 ft 372 kts 120°
2026-04-16 11:14 49.82444 8.92030 12438 ft 383 kts 120°
2026-04-16 11:14 49.81124 8.95667 13455 ft 392 kts 120°
2026-04-16 11:14 49.79773 8.99385 14443 ft 400 kts 120°
2026-04-16 11:15 49.78398 9.03162 15457 ft 404 kts 120°
2026-04-16 11:15 49.77022 9.06930 16432 ft 410 kts 120°
2026-04-16 11:15 49.75767 9.10926 17298 ft 417 kts 109°
2026-04-16 11:15 49.75065 9.15313 18194 ft 421 kts 102°
2026-04-16 11:16 49.74206 9.19666 18914 ft 428 kts 116°
2026-04-16 11:16 49.72458 9.23386 19628 ft 429 kts 134°
2026-04-16 11:16 49.70340 9.26721 20282 ft 438 kts 135°
2026-04-16 11:16 49.68234 9.30158 21100 ft 442 kts 133°
2026-04-16 11:17 49.66167 9.33714 21970 ft 446 kts 131°
2026-04-16 11:17 49.64135 9.37370 22748 ft 452 kts 128°
2026-04-16 11:17 49.62358 9.41417 23445 ft 459 kts 120°
2026-04-16 11:17 49.60874 9.45826 24104 ft 465 kts 114°
2026-04-16 11:18 49.59724 9.50513 24738 ft 469 kts 107°
2026-04-16 11:18 49.58740 9.55264 25343 ft 474 kts 106°
2026-04-16 11:18 49.57750 9.60142 25953 ft 479 kts 106°
2026-04-16 11:18 49.56732 9.65070 26545 ft 485 kts 106°
2026-04-16 11:19 49.55677 9.70033 27136 ft 490 kts 107°
2026-04-16 11:19 49.54593 9.75044 27727 ft 494 kts 107°
2026-04-16 11:19 49.53310 9.79987 28291 ft 501 kts 113°
2026-04-16 11:19 49.51668 9.84750 28812 ft 507 kts 119°
2026-04-16 11:20 49.49728 9.89335 29352 ft 513 kts 124°
2026-04-16 11:20 49.47495 9.93650 29828 ft 518 kts 128°
2026-04-16 11:20 49.45173 9.97926 30269 ft 523 kts 128°
2026-04-16 11:20 49.42838 10.02225 30757 ft 524 kts 128°
2026-04-16 11:21 49.40560 10.06484 31358 ft 522 kts 127°
2026-04-16 11:21 49.38275 10.10801 31974 ft 520 kts 127°
2026-04-16 11:21 49.35989 10.15126 32521 ft 520 kts 127°
2026-04-16 11:21 49.33704 10.19422 33040 ft 520 kts 127°
2026-04-16 11:22 49.31410 10.23715 33576 ft 519 kts 127°
2026-04-16 11:22 49.29119 10.27998 34127 ft 518 kts 127°
2026-04-16 11:22 49.26833 10.32268 34590 ft 518 kts 127°
2026-04-16 11:22 49.24548 10.36527 35063 ft 517 kts 127°
2026-04-16 11:23 49.22152 10.40630 35536 ft 517 kts 133°
2026-04-16 11:23 49.19602 10.44414 35998 ft 516 kts 134°
2026-04-16 11:23 49.17002 10.48180 36448 ft 515 kts 134°
2026-04-16 11:23 49.14421 10.51962 36918 ft 514 kts 134°
2026-04-16 11:24 49.11859 10.55765 37341 ft 512 kts 134°
2026-04-16 11:24 49.09309 10.59560 37769 ft 511 kts 134°
2026-04-16 11:24 49.06755 10.63351 38172 ft 511 kts 134°
2026-04-16 11:24 49.04208 10.67116 38595 ft 509 kts 134°
2026-04-16 11:25 49.01659 10.70863 38927 ft 510 kts 134°
2026-04-16 11:25 48.99094 10.74618 39142 ft 511 kts 135°
2026-04-16 11:25 48.96523 10.78378 39210 ft 512 kts 135°
2026-04-16 11:26 48.91428 10.85824 39269 ft 509 kts 135°
2026-04-16 11:26 48.86344 10.93271 39271 ft 505 kts 135°
2026-04-16 11:27 48.81292 11.00668 39273 ft 503 kts 135°
2026-04-16 11:27 48.76246 11.08023 39268 ft 502 kts 135°
2026-04-16 11:28 48.71205 11.15346 39270 ft 502 kts 135°
2026-04-16 11:28 48.66382 11.22885 39265 ft 500 kts 125°
2026-04-16 11:29 48.62904 11.31910 39274 ft 496 kts 110°
2026-04-16 11:29 48.60766 11.41791 39264 ft 494 kts 104°
2026-04-16 11:30 48.58739 11.51752 39273 ft 495 kts 105°
2026-04-16 11:30 48.56678 11.61689 39254 ft 495 kts 102°
2026-04-16 11:31 48.55196 11.71758 39257 ft 494 kts 100°
2026-04-16 11:31 48.53774 11.81917 39268 ft 495 kts 100°
2026-04-16 11:32 48.52298 11.92090 39265 ft 495 kts 101°
2026-04-16 11:32 48.50798 12.02234 39261 ft 495 kts 101°
2026-04-16 11:33 48.49289 12.12386 39260 ft 496 kts 101°
2026-04-16 11:33 48.47772 12.22447 39265 ft 495 kts 102°
2026-04-16 11:34 48.46237 12.32553 39263 ft 495 kts 102°
2026-04-16 11:34 48.44696 12.42652 39266 ft 495 kts 102°
2026-04-16 11:35 48.43148 12.52744 39255 ft 495 kts 102°
2026-04-16 11:35 48.41588 12.62850 39256 ft 495 kts 102°
2026-04-16 11:36 48.40029 12.72888 39269 ft 495 kts 103°
2026-04-16 11:36 48.37978 12.82785 39263 ft 496 kts 109°
2026-04-16 11:37 48.35634 12.92547 39257 ft 496 kts 109°
2026-04-16 11:37 48.33312 13.02327 39244 ft 499 kts 111°
2026-04-16 11:38 48.30985 13.12229 39270 ft 506 kts 111°
2026-04-16 11:38 48.28644 13.22153 39259 ft 508 kts 111°
2026-04-16 11:39 48.26289 13.32178 39254 ft 509 kts 111°
2026-04-16 11:39 48.23929 13.42188 39253 ft 509 kts 111°
2026-04-16 11:40 48.21201 13.51957 39251 ft 505 kts 120°
2026-04-16 11:40 48.17560 13.60784 39257 ft 501 kts 125°
2026-04-16 11:41 48.13759 13.69458 39249 ft 500 kts 126°
2026-04-16 11:41 48.09966 13.78166 39249 ft 499 kts 125°
2026-04-16 11:42 48.06201 13.86867 39250 ft 498 kts 125°
2026-04-16 11:42 48.02442 13.95555 39250 ft 497 kts 125°
2026-04-16 11:43 47.98674 14.04233 39249 ft 497 kts 125°
2026-04-16 11:43 47.94900 14.12895 39247 ft 497 kts 125°
2026-04-16 11:44 47.91147 14.21476 39240 ft 497 kts 125°
2026-04-16 11:44 47.87349 14.30133 39237 ft 498 kts 126°
2026-04-16 11:45 47.83551 14.38764 39233 ft 498 kts 126°
2026-04-16 11:45 47.79746 14.47384 39225 ft 499 kts 126°
2026-04-16 11:46 47.75926 14.56009 39243 ft 498 kts 126°
2026-04-16 11:46 47.72128 14.64559 39229 ft 499 kts 126°
2026-04-16 11:47 47.68304 14.73141 39234 ft 498 kts 126°
2026-04-16 11:47 47.64467 14.81723 39223 ft 498 kts 126°
2026-04-16 11:48 47.60635 14.90270 39234 ft 498 kts 126°
2026-04-16 11:48 47.56795 14.98804 39222 ft 498 kts 126°
2026-04-16 11:49 47.52969 15.07285 39221 ft 497 kts 126°
2026-04-16 11:49 47.49121 15.15786 39217 ft 497 kts 126°
2026-04-16 11:50 47.45271 15.24265 39208 ft 496 kts 126°
2026-04-16 11:50 47.41414 15.32735 39213 ft 496 kts 126°
2026-04-16 11:51 47.37584 15.41120 39202 ft 495 kts 126°
2026-04-16 11:51 47.33723 15.49545 39113 ft 497 kts 126°
2026-04-16 11:52 47.29851 15.57971 39183 ft 495 kts 126°
2026-04-16 11:52 47.25988 15.66350 39199 ft 494 kts 126°
2026-04-16 11:53 47.22141 15.74667 39207 ft 493 kts 126°
2026-04-16 11:53 47.18277 15.82998 39199 ft 493 kts 126°
2026-04-16 11:54 47.14405 15.91321 39200 ft 493 kts 126°
2026-04-16 11:54 47.10526 15.99635 39196 ft 492 kts 126°
2026-04-16 11:55 47.06655 16.07910 39201 ft 492 kts 126°
2026-04-16 11:55 47.02773 16.16183 39208 ft 492 kts 125°
2026-04-16 11:56 46.99924 16.23398 39208 ft 492 kts 116°
2026-04-16 11:56 46.97174 16.34313 39210 ft 492 kts 107°
2026-04-16 11:57 46.95519 16.42350 39203 ft 492 kts 107°
2026-04-16 11:57 46.93510 16.51925 39207 ft 491 kts 107°
2026-04-16 11:58 46.91470 16.61410 39204 ft 491 kts 108°
2026-04-16 11:58 46.89405 16.70945 39199 ft 490 kts 108°
2026-04-16 11:59 46.87218 16.80378 39201 ft 489 kts 113°
2026-04-16 11:59 46.84052 16.89158 39205 ft 488 kts 122°
2026-04-16 12:00 46.80417 16.97482 39204 ft 488 kts 123°
2026-04-16 12:00 46.76760 17.05820 39216 ft 488 kts 123°
2026-04-16 12:01 46.73127 17.14176 39212 ft 487 kts 122°
2026-04-16 12:01 46.69498 17.22543 39209 ft 487 kts 122°
2026-04-16 12:02 45.95181 18.87076 39212 ft 478 kts 125°
2026-04-16 12:02 45.34180 20.09386 39159 ft 472 kts 124°
2026-04-16 12:03 44.90966 20.93140 39133 ft 470 kts 124°
2026-04-16 12:03 44.87065 21.00570 39133 ft 470 kts 124°
2026-04-16 12:04 44.83195 21.07921 39124 ft 470 kts 124°
2026-04-16 12:04 44.79294 21.15320 39130 ft 470 kts 124°
2026-04-16 12:05 44.75383 21.22721 39128 ft 470 kts 125°
2026-04-16 12:05 44.71466 21.30116 39127 ft 471 kts 125°
2026-04-16 12:06 44.67565 21.37460 39131 ft 471 kts 125°
2026-04-16 12:06 44.63633 21.44846 39125 ft 472 kts 125°
2026-04-16 12:07 44.59687 21.52237 39127 ft 472 kts 125°
2026-04-16 12:07 44.55765 21.59565 39121 ft 473 kts 125°
2026-04-16 12:08 44.51806 21.66943 39128 ft 473 kts 125°
2026-04-16 12:08 44.47836 21.74323 39125 ft 474 kts 126°
2026-04-16 12:09 44.43853 21.81706 39125 ft 475 kts 126°
2026-04-16 12:09 44.39890 21.89036 39133 ft 475 kts 126°
2026-04-16 12:10 44.35891 21.96413 39127 ft 476 kts 126°
2026-04-16 12:10 44.31891 22.03774 39132 ft 476 kts 126°
2026-04-16 12:11 44.27868 22.11156 39130 ft 477 kts 126°
2026-04-16 12:11 44.23870 22.18475 39131 ft 477 kts 126°
2026-04-16 12:12 44.19844 22.25827 39137 ft 477 kts 126°
2026-04-16 12:12 44.15807 22.33179 39132 ft 477 kts 126°
2026-04-16 12:13 44.11771 22.40513 39133 ft 477 kts 126°
2026-04-16 12:13 44.07726 22.47842 39132 ft 477 kts 127°
2026-04-16 12:14 44.03674 22.55168 39131 ft 477 kts 127°
2026-04-16 12:14 43.99641 22.62438 39133 ft 477 kts 127°
2026-04-16 12:15 43.95579 22.69744 39132 ft 478 kts 127°
2026-04-16 12:15 43.91513 22.77039 39136 ft 478 kts 127°
2026-04-16 12:16 43.87431 22.84344 39131 ft 478 kts 127°
2026-04-16 12:16 43.83377 22.91581 39130 ft 479 kts 127°
2026-04-16 12:17 43.79281 22.98875 39135 ft 479 kts 127°
2026-04-16 12:17 43.75175 23.06169 39136 ft 480 kts 127°
2026-04-16 12:18 43.71064 23.13451 39131 ft 480 kts 127°
2026-04-16 12:18 43.66950 23.20722 39136 ft 480 kts 127°
2026-04-16 12:19 43.54628 23.42413 39137 ft 481 kts 128°
2026-04-16 12:19 43.25368 24.04028 39148 ft 482 kts 123°
2026-04-16 12:20 42.94990 24.67882 39147 ft 485 kts 123°
2026-04-16 12:20 42.34860 25.90486 39130 ft 488 kts 125°
2026-04-16 12:21 42.13311 26.38205 39144 ft 490 kts 120°
2026-04-16 12:21 42.10789 26.44206 38445 ft 497 kts 121°
2026-04-16 12:21 42.09093 26.48227 37613 ft 491 kts 121°
2026-04-16 12:22 42.07430 26.52165 36871 ft 489 kts 121°
2026-04-16 12:22 42.03306 26.61936 34936 ft 488 kts 121°
2026-04-16 12:22 41.96518 26.77950 30925 ft 498 kts 122°
2026-04-16 12:22 41.89486 26.93473 28637 ft 478 kts 123°
2026-04-16 12:23 41.82544 27.08735 27061 ft 474 kts 123°
2026-04-16 12:23 41.75443 27.23004 25207 ft 445 kts 127°
2026-04-16 12:23 41.67920 27.35222 23466 ft 408 kts 154°
2026-04-16 12:23 41.57411 27.39111 21831 ft 386 kts 168°
2026-04-16 12:24 41.47202 27.42855 20234 ft 366 kts 156°
2026-04-16 12:24 41.43146 27.53847 18844 ft 343 kts 81°
2026-04-16 12:24 41.45583 27.65939 17539 ft 336 kts 75°
2026-04-16 12:24 41.47891 27.77845 16178 ft 334 kts 75°
2026-04-16 12:25 41.48565 27.89820 14868 ft 321 kts 97°
2026-04-16 12:25 41.46762 28.01209 13557 ft 312 kts 132°
2026-04-16 12:25 41.40137 28.08314 12384 ft 307 kts 144°
2026-04-16 12:25 41.32199 28.10105 11047 ft 294 kts 182°
2026-04-16 12:26 41.24388 28.09096 9884 ft 261 kts 220°
2026-04-16 12:26 41.19527 28.02850 9946 ft 240 kts 227°
2026-04-16 12:26 41.13753 27.97996 10040 ft 253 kts 212°
2026-04-16 12:26 41.07218 27.94547 9984 ft 254 kts 197°
2026-04-16 12:27 41.00413 27.92680 9916 ft 246 kts 181°
2026-04-16 12:27 40.96886 27.92811 9983 ft 249 kts 181°
2026-04-16 12:27 40.95122 27.93165 9967 ft 268 kts 159°
2026-04-16 12:27 40.93668 27.94675 9952 ft 268 kts 125°
2026-04-16 12:28 40.93092 27.96974 9792 ft 265 kts 89°
2026-04-16 12:28 40.93312 27.99320 9456 ft 259 kts 79°
2026-04-16 12:28 40.93606 28.01660 9089 ft 257 kts 80°
2026-04-16 12:28 40.94214 28.07004 8317 ft 250 kts 81°
2026-04-16 12:29 40.95101 28.15211 7095 ft 241 kts 80°
2026-04-16 12:29 40.95334 28.17395 6761 ft 239 kts 80°
2026-04-16 12:29 40.95564 28.19564 6426 ft 237 kts 80°
2026-04-16 12:29 40.95789 28.21704 6247 ft 230 kts 81°
2026-04-16 12:30 40.96169 28.23741 6229 ft 231 kts 59°
2026-04-16 12:30 40.96937 28.25610 6247 ft 240 kts 72°
2026-04-16 12:30 40.97122 28.27827 6273 ft 245 kts 87°
2026-04-16 12:30 40.97194 28.30080 6173 ft 245 kts 85°
2026-04-16 12:31 40.97290 28.32325 5965 ft 241 kts 85°
2026-04-16 12:31 40.97386 28.34515 5695 ft 236 kts 85°
2026-04-16 12:31 40.97480 28.36676 5400 ft 233 kts 85°
2026-04-16 12:31 40.97570 28.38803 5117 ft 228 kts 85°
2026-04-16 12:32 40.97587 28.40875 4943 ft 224 kts 88°
2026-04-16 12:32 40.97577 28.42951 4735 ft 227 kts 88°
2026-04-16 12:32 40.97569 28.45019 4522 ft 228 kts 88°
2026-04-16 12:32 40.97562 28.47132 4305 ft 231 kts 88°
2026-04-16 12:33 40.97556 28.49259 4068 ft 230 kts 88°
2026-04-16 12:33 40.97551 28.51351 3854 ft 224 kts 88°
2026-04-16 12:33 40.97545 28.53387 3624 ft 219 kts 88°
2026-04-16 12:33 40.97540 28.55395 3442 ft 218 kts 88°
2026-04-16 12:34 40.97534 28.57397 3221 ft 216 kts 88°
2026-04-16 12:34 40.97530 28.59359 3071 ft 209 kts 88°
2026-04-16 12:34 40.97524 28.61230 3014 ft 199 kts 87°
2026-04-16 12:34 40.97518 28.63017 2987 ft 196 kts 88°
2026-04-16 12:35 40.97513 28.64860 2989 ft 207 kts 88°
2026-04-16 12:35 40.97721 28.66727 2958 ft 205 kts 62°
2026-04-16 12:35 40.98656 28.68137 2974 ft 209 kts 36°
2026-04-16 12:35 40.99899 28.69135 2975 ft 206 kts 31°
2026-04-16 12:36 41.01138 28.70033 2964 ft 199 kts 30°
2026-04-16 12:36 41.02351 28.70891 2969 ft 199 kts 25°
2026-04-16 12:36 41.03753 28.71202 2982 ft 211 kts
2026-04-16 12:36 41.05211 28.71156 2971 ft 208 kts
2026-04-16 12:37 41.06668 28.71131 2968 ft 210 kts
2026-04-16 12:37 41.08125 28.71102 2968 ft 208 kts
2026-04-16 12:37 41.09560 28.71075 2980 ft 210 kts
2026-04-16 12:37 41.11028 28.71046 2976 ft 209 kts
2026-04-16 12:38 41.12424 28.71015 2997 ft 188 kts
2026-04-16 12:38 41.13685 28.70988 2791 ft 175 kts
2026-04-16 12:38 41.14822 28.70961 2589 ft 154 kts
2026-04-16 12:38 41.15808 28.70944 2399 ft 134 kts
2026-04-16 12:39 41.16732 28.70928 2219 ft 132 kts
2026-04-16 12:39 41.17650 28.70912 2040 ft 131 kts
2026-04-16 12:39 41.18552 28.70906 1948 ft 129 kts
2026-04-16 12:39 41.19468 28.70907 1774 ft 131 kts
2026-04-16 12:40 41.20368 28.70864 1666 ft 132 kts
2026-04-16 12:40 41.21276 28.70813 1530 ft 130 kts
2026-04-16 12:40 41.22188 28.70821 1332 ft 131 kts
2026-04-16 12:40 41.23095 28.70781 1114 ft 131 kts
2026-04-16 12:41 41.24017 28.70768 893 ft 133 kts
2026-04-16 12:41 41.24921 28.70764 691 ft 126 kts
2026-04-16 12:41 41.25793 28.70737 544 ft 127 kts
2026-04-16 12:41 41.26687 28.70732 372 ft 129 kts
2026-04-16 12:42 41.27561 28.70719 308 ft 115 kts 359°
2026-04-16 12:42 41.28208 28.70707 294 ft 71 kts 359°
2026-04-16 12:42 41.28588 28.70699 272 ft 53 kts 360°
2026-04-16 12:42 41.28904 28.70720 261 ft 37 kts 13°
2026-04-16 12:43 41.29056 28.70802 258 ft 12 kts 26°
2026-04-16 12:43 41.29123 28.70859 257 ft 12 kts 39°
2026-04-16 12:43 41.29192 28.70928 255 ft 14 kts 37°
2026-04-16 12:43 41.29236 28.71028 254 ft 13 kts 85°
2026-04-16 12:44 41.29238 28.71083 254 ft 1 kts 87°
2026-04-16 12:44 41.29239 28.71096 254 ft 2 kts 88°
2026-04-16 12:44 41.29239 28.71103 254 ft 0 kts 88°
2026-04-16 12:44 41.29239 28.71109 254 ft 0 kts 88°
2026-04-16 12:45 41.29239 28.71115 254 ft 1 kts 89°
2026-04-16 12:45 41.29232 28.71135 254 ft 2 kts 123°
2026-04-16 12:45 41.29221 28.71145 254 ft 2 kts 151°
2026-04-16 12:45 41.29207 28.71148 255 ft 2 kts 179°
2026-04-16 12:46 41.29189 28.71148 255 ft 4 kts 174°
2026-04-16 12:46 41.29159 28.71152 256 ft 4 kts 174°
2026-04-16 12:46 41.29128 28.71156 257 ft 5 kts 175°
2026-04-16 12:46 41.29092 28.71159 258 ft 12 kts 178°
2026-04-16 12:47 41.28997 28.71159 261 ft 14 kts 178°
2026-04-16 12:47 41.28900 28.71164 265 ft 14 kts 178°
2026-04-16 12:47 41.28804 28.71168 269 ft 14 kts 178°
2026-04-16 12:47 41.28707 28.71173 273 ft 14 kts 178°
2026-04-16 12:48 41.28611 28.71178 277 ft 14 kts 178°
2026-04-16 12:48 41.28516 28.71177 280 ft 14 kts 180°
2026-04-16 12:48 41.28374 28.71178 285 ft 31 kts 180°
2026-04-16 12:48 41.28157 28.71182 296 ft 28 kts 179°
2026-04-16 12:49 41.27959 28.71187 303 ft 28 kts 178°
2026-04-16 12:49 41.27615 28.71192 311 ft 28 kts 179°
2026-04-16 12:49 41.27221 28.71199 320 ft 28 kts 179°
2026-04-16 12:49 41.27003 28.71204 322 ft 20 kts 179°
2026-04-16 12:50 41.26901 28.71207 325 ft 9 kts 179°
2026-04-16 12:50 41.26835 28.71209 326 ft 9 kts 179°
2026-04-16 12:50 41.26801 28.71216 327 ft 5 kts 152°
2026-04-16 12:50 41.26787 28.71256 327 ft 5 kts 91°
2026-04-16 12:51 41.26788 28.71351 330 ft 16 kts 90°
2026-04-16 12:51 41.26789 28.71516 325 ft 20 kts 89°
2026-04-16 12:51 41.26792 28.71705 319 ft 22 kts 89°
2026-04-16 12:51 41.26793 28.71919 317 ft 24 kts 89°
2026-04-16 12:52 41.26794 28.72065 315 ft 9 kts 90°
2026-04-16 12:52 41.26787 28.72148 315 ft 9 kts 117°
2026-04-16 12:52 41.26727 28.72168 314 ft 10 kts 179°
2026-04-16 12:52 41.26629 28.72172 317 ft 17 kts 177°
2026-04-16 12:53 41.26504 28.72179 316 ft 18 kts 177°
2026-04-16 12:53 41.26373 28.72179 317 ft 19 kts 180°
2026-04-16 12:53 41.26267 28.72178 317 ft 0 kts 180°
2026-04-16 12:54 41.26235 28.72179 317 ft 11 kts 171°
2026-04-16 12:54 41.26204 28.72267 317 ft 12 kts 88°
2026-04-16 12:55 41.26209 28.72389 317 ft 15 kts 88°
2026-04-16 12:55 41.26212 28.72543 319 ft 21 kts 89°
2026-04-16 12:55 41.26215 28.72745 319 ft 19 kts 89°
2026-04-16 12:55 41.26218 28.72919 317 ft 19 kts 89°
2026-04-16 12:56 41.26219 28.73087 317 ft 1 kts 90°
2026-04-16 12:56 41.26220 28.73114 317 ft 8 kts 86°
2026-04-16 12:56 41.26225 28.73202 317 ft 8 kts 83°
2026-04-16 12:56 41.26268 28.73234 317 ft 8 kts 357°
2026-04-16 12:57 41.26331 28.73228 317 ft 12 kts 357°
2026-04-16 12:57 41.26463 28.73227 317 ft 22 kts
2026-04-16 12:57 41.26618 28.73228 317 ft 22 kts 360°
2026-04-16 12:57 41.26773 28.73228 317 ft 22 kts
2026-04-16 12:58 41.26893 28.73229 317 ft 11 kts
2026-04-16 12:58 41.26951 28.73258 317 ft 9 kts 59°
2026-04-16 12:58 41.26956 28.73354 317 ft 15 kts 88°
2026-04-16 12:58 41.26958 28.73550 317 ft 24 kts 89°
2026-04-16 12:59 41.26960 28.73769 317 ft 21 kts 89°
2026-04-16 12:59 41.26961 28.73880 317 ft 11 kts 89°
2026-04-16 12:59 41.26952 28.73975 316 ft 10 kts 119°
2026-04-16 13:00 41.26814 28.74014 318 ft 12 kts 184°
2026-04-16 13:00 41.26748 28.73953 318 ft 12 kts 220°
2026-04-16 13:00 41.26686 28.73892 318 ft 8 kts 215°
2026-04-16 13:00 41.26639 28.73908 318 ft 9 kts 121°
2026-04-16 13:01 41.26616 28.73987 318 ft 8 kts 107°
2026-04-16 13:01 41.26602 28.74035 318 ft 5 kts 114°
2026-04-16 13:01 41.26600 28.74081 318 ft 3 kts 84°
2026-04-16 13:01 41.26601 28.74101 318 ft 2 kts 86°
2026-04-16 13:02 41.26601 28.74119 318 ft 0 kts 88°
2026-04-16 13:02 41.26601 28.74120 318 ft 0 kts 88°